Location: Beuerbach
(48.1459°N, 10.9174°E)
Time: 04:18:44
(UTC+00:00)

Cosmos 1455 - Pass Details

Date: 16 August 2024
Orbit: 432 x 445 km, 82.5° (Epoch: 09 September)

Event Time Altitude Azimuth Distance (km) Brightness Sun altitude
Exits shadow 03:35:16 - 246° (WSW) 1,697 4.1 -6.5°
Reaches altitude 10° 03:35:43 10° 251° (WSW) 1,573 4.0 -6.4°
Maximum altitude 03:37:54 16° 291° (WNW) 1,257 3.8 -6.1°
Drops below altitude 10° 03:40:06 10° 331° (NNW) 1,572 4.7 -5.8°
Sets 03:42:47 0° 354° (N) 2,443 5.9 -5.4°
